QPF
0.02 0.01 0.01 0.01 0.00 0.01 0.03 0.03 0.03 0.04 0.05 0.07 0.05 0.03 0.03 0.02 0.02 0.02 0.02 0.02 0.02 0.02 0.03 0.05 0.05 0.04 0.03 0.02 0.02 0.01 0.02 0.02 0.03 0.03 0.02 0.02 0.02 0.02 0.03 0.04 0.03 0.04 0.04
0.03 0.02 0.01 0.01 0.00 0.00 0.02 0.03 0.03 0.03 0.04 0.07 0.07 0.05 0.04 0.02 0.02 0.02 0.02 0.02 0.02 0.03 0.04 0.06 0.07 0.04 0.04 0.03 0.03 0.01 0.02 0.03 0.03 0.03 0.03 0.02 0.02 0.02 0.02 0.02 0.02 0.04 0.04
0.03 0.02 0.02 0.01 0.01 0.01 0.01 0.02 0.03 0.03 0.03 0.05 0.07 0.07 0.06 0.03 0.02 0.02 0.02 0.02 0.02 0.02 0.04 0.05 0.05 0.04 0.03 0.03 0.04 0.03 0.03 0.03 0.03 0.04 0.04 0.03 0.03 0.02 0.03 0.02 0.02 0.02 0.03
0.05 0.02 0.02 0.02 0.01 0.01 0.02 0.02 0.03 0.03 0.03 0.04 0.04 0.05 0.06 0.04 0.03 0.03 0.02 0.01 0.01 0.01 0.02 0.03 0.04 0.04 0.04 0.04 0.04 0.05 0.04 0.04 0.04 0.03 0.05 0.05 0.03 0.02 0.03 0.02 0.02 0.02 0.03
0.06 0.04 0.03 0.02 0.01 0.01 0.02 0.03 0.03 0.03 0.03 0.03 0.03 0.03 0.03 0.04 0.04 0.04 0.03 0.02 0.02 0.02 0.01 0.02 0.03 0.03 0.04 0.04 0.05 0.05 0.05 0.04 0.04 0.03 0.04 0.06 0.06 0.04 0.03 0.02 0.03 0.03 0.02
0.09 0.07 0.06 0.05 0.04 0.03 0.02 0.03 0.05 0.04 0.03 0.03 0.03 0.03 0.02 0.03 0.03 0.03 0.03 0.03 0.03 0.03 0.02 0.02 0.02 0.02 0.03 0.04 0.05 0.05 0.04 0.05 0.04 0.03 0.03 0.04 0.07 0.08 0.05 0.03 0.03 0.03 0.03
0.13 0.10 0.08 0.06 0.06 0.05 0.04 0.04 0.05 0.06 0.05 0.04 0.04 0.04 0.03 0.02 0.02 0.02 0.02 0.03 0.03 0.03 0.02 0.02 0.02 0.02 0.02 0.02 0.03 0.04 0.04 0.04 0.04 0.04 0.04 0.04 0.07 0.09 0.09 0.06 0.04 0.03 0.04
0.16 0.14 0.12 0.08 0.06 0.06 0.06 0.05 0.05 0.06 0.06 0.05 0.05 0.04 0.04 0.04 0.03 0.01 0.02 0.02 0.02 0.02 0.03 0.03 0.02 0.02 0.02 0.02 0.02 0.02 0.03 0.04 0.04 0.06 0.05 0.05 0.07 0.10 0.10 0.07 0.04 0.03 0.03
0.13 0.14 0.13 0.11 0.09 0.07 0.07 0.07 0.06 0.07 0.06 0.05 0.04 0.04 0.03 0.02 0.02 0.02 0.01 0.01 0.02 0.02 0.02 0.02 0.02 0.02 0.01 0.01 0.01 0.01 0.02 0.03 0.04 0.05 0.07 0.07 0.07 0.07 0.07 0.05 0.04 0.04 0.03
0.10 0.09 0.10 0.10 0.09 0.09 0.09 0.09 0.09 0.09 0.09 0.06 0.04 0.04 0.03 0.01 0.01 0.01 0.01 0.01 0.01 0.01 0.02 0.02 0.01 0.01 0.01 0.01 0.01 0.01 0.01 0.02 0.03 0.04 0.06 0.08 0.09 0.09 0.07 0.05 0.05 0.04 0.03
0.10 0.09 0.07 0.08 0.08 0.08 0.08 0.09 0.11 0.12 0.13 0.10 0.07 0.04 0.03 0.02 0.01 0.01 0.01 0.01 0.01 0.01 0.01 0.01 0.01 0.01 0.01 0.02 0.02 0.01 0.01 0.01 0.02 0.03 0.03 0.05 0.08 0.09 0.08 0.06 0.05 0.04 0.03
0.07 0.08 0.07 0.07 0.07 0.07 0.07 0.07 0.09 0.10 0.14 0.15 0.11 0.07 0.05 0.03 0.02 0.01 0.00 0.00 0.01 0.01 0.01 0.01 0.01 0.01 0.01 0.01 0.01 0.02 0.01 0.01 0.02 0.02 0.02 0.03 0.07 0.08 0.07 0.06 0.05 0.04 0.03
0.05 0.05 0.06 0.06 0.06 0.06 0.06 0.07 0.07 0.08 0.10 0.13 0.15 0.12 0.08 0.05 0.03 0.02 0.01 0.00 0.00 0.01 0.01 0.01 0.01 0.01 0.00 0.00 0.00 0.01 0.01 0.01 0.01 0.02 0.03 0.02 0.03 0.05 0.06 0.06 0.05 0.04 0.03
0.04 0.04 0.04 0.04 0.04 0.05 0.05 0.06 0.07 0.07 0.07 0.08 0.11 0.12 0.11 0.08 0.06 0.04 0.02 0.01 0.01 0.01 0.01 0.01 0.01 0.01 0.01 0.00 0.00 0.00 0.00 0.01 0.01 0.01 0.03 0.03 0.02 0.03 0.04 0.05 0.05 0.04 0.03
0.04 0.04 0.03 0.03 0.03 0.03 0.04 0.05 0.06 0.06 0.06 0.06 0.07 0.09 0.09 0.08 0.07 0.06 0.04 0.03 0.02 0.02 0.02 0.02 0.01 0.01 0.01 0.00 0.00 0.00 0.00 0.00 0.01 0.01 0.03 0.03 0.03 0.02 0.03 0.04 0.04 0.04 0.04
0.04 0.04 0.03 0.03 0.03 0.03 0.03 0.04 0.05 0.05 0.05 0.05 0.05 0.06 0.08 0.07 0.06 0.05 0.05 0.04 0.03 0.03 0.03 0.02 0.02 0.01 0.01 0.01 0.00 0.00 0.00 0.00 0.00 0.01 0.02 0.03 0.04 0.03 0.02 0.03 0.04 0.04 0.04
0.05 0.04 0.04 0.03 0.03 0.03 0.03 0.03 0.04 0.04 0.05 0.05 0.05 0.04 0.05 0.06 0.06 0.06 0.05 0.05 0.03 0.03 0.04 0.03 0.02 0.02 0.01 0.01 0.01 0.00 0.00 0.00 0.00 0.01 0.01 0.02 0.03 0.03 0.02 0.02 0.03 0.04 0.04
0.06 0.04 0.04 0.03 0.03 0.03 0.03 0.03 0.03 0.03 0.04 0.05 0.05 0.04 0.04 0.05 0.06 0.06 0.06 0.06 0.04 0.04 0.04 0.04 0.04 0.03 0.02 0.02 0.01 0.00 0.00 0.00 0.00 0.01 0.01 0.02 0.02 0.03 0.02 0.01 0.02 0.03 0.04
0.07 0.05 0.04 0.04 0.03 0.03 0.03 0.02 0.02 0.02 0.03 0.03 0.04 0.04 0.04 0.04 0.05 0.06 0.06 0.06 0.05 0.04 0.03 0.04 0.05 0.04 0.04 0.03 0.02 0.01 0.01 0.01 0.00 0.00 0.01 0.02 0.02 0.02 0.02 0.02 0.01 0.01 0.02
0.08 0.07 0.05 0.04 0.03 0.03 0.02 0.02 0.02 0.02 0.02 0.02 0.02 0.02 0.03 0.04 0.04 0.04 0.05 0.05 0.06 0.05 0.04 0.04 0.06 0.06 0.05 0.05 0.03 0.02 0.02 0.01 0.01 0.01 0.01 0.02 0.02 0.02 0.02 0.02 0.02 0.01 0.01
0.07 0.07 0.06 0.05 0.03 0.03 0.02 0.02 0.02 0.02 0.02 0.01 0.01 0.01 0.01 0.02 0.03 0.04 0.04 0.05 0.05 0.06 0.06 0.05 0.06 0.07 0.06 0.06 0.06 0.04 0.02 0.02 0.01 0.01 0.01 0.02 0.02 0.03 0.03 0.02 0.02 0.02 0.01
0.06 0.07 0.06 0.05 0.04 0.03 0.03 0.02 0.03 0.03 0.02 0.01 0.01 0.01 0.01 0.01 0.02 0.03 0.03 0.04 0.04 0.05 0.06 0.06 0.06 0.07 0.06 0.05 0.05 0.04 0.03 0.03 0.03 0.02 0.02 0.03 0.03 0.05 0.05 0.04 0.03 0.02 0.02
0.04 0.05 0.05 0.05 0.04 0.04 0.03 0.03 0.03 0.04 0.03 0.02 0.01 0.01 0.01 0.01 0.02 0.02 0.03 0.03 0.03 0.04 0.04 0.06 0.07 0.07 0.06 0.05 0.04 0.04 0.03 0.02 0.02 0.02 0.02 0.02 0.03 0.04 0.05 0.06 0.05 0.03 0.02
0.04 0.04 0.04 0.04 0.03 0.03 0.03 0.03 0.04 0.04 0.03 0.02 0.01 0.01 0.01 0.01 0.01 0.02 0.03 0.04 0.04 0.03 0.03 0.04 0.06 0.07 0.08 0.07 0.05 0.03 0.03 0.02 0.02 0.02 0.01 0.02 0.03 0.03 0.04 0.06 0.07 0.05 0.03
0.04 0.04 0.03 0.03 0.03 0.03 0.03 0.03 0.05 0.05 0.03 0.02 0.01 0.01 0.01 0.01 0.01 0.02 0.03 0.03 0.04 0.04 0.04 0.05 0.06 0.07 0.09 0.10 0.09 0.06 0.03 0.03 0.03 0.02 0.02 0.02 0.02 0.03 0.03 0.04 0.05 0.05 0.04
0.04 0.04 0.04 0.04 0.03 0.02 0.02 0.03 0.04 0.05 0.04 0.03 0.02 0.02 0.02 0.02 0.02 0.03 0.03 0.03 0.04 0.04 0.04 0.05 0.07 0.08 0.08 0.08 0.08 0.06 0.04 0.03 0.03 0.03 0.02 0.02 0.02 0.02 0.03 0.03 0.03 0.03 0.03
MSLP
1018.69 1019.48 1020.33 1021.21 1022.08 1022.87 1023.53 1024.04 1024.39 1024.62 1024.79 1024.96 1025.20 1025.54 1025.97 1026.48 1026.99 1027.45 1027.81 1028.05 1028.17 1028.23 1028.26 1028.33 1028.47 1028.71 1029.02 1029.38 1029.72 1029.99 1030.16 1030.23 1030.20 1030.12 1030.05 1030.02 1030.07 1030.21 1030.40 1030.62 1030.80 1030.90 1030.88
1018.90 1019.66 1020.48 1021.36 1022.26 1023.11 1023.85 1024.45 1024.90 1025.22 1025.46 1025.70 1025.99 1026.36 1026.83 1027.35 1027.88 1028.35 1028.71 1028.93 1029.02 1029.02 1028.99 1028.99 1029.08 1029.29 1029.61 1029.99 1030.38 1030.73 1030.98 1031.10 1031.12 1031.05 1030.95 1030.89 1030.88 1030.96 1031.11 1031.29 1031.47 1031.58 1031.61
1019.08 1019.80 1020.59 1021.45 1022.35 1023.25 1024.07 1024.78 1025.35 1025.79 1026.15 1026.48 1026.84 1027.28 1027.78 1028.34 1028.89 1029.38 1029.74 1029.95 1030.01 1029.96 1029.86 1029.79 1029.81 1029.97 1030.25 1030.62 1031.04 1031.43 1031.74 1031.93 1031.99 1031.95 1031.86 1031.76 1031.71 1031.73 1031.82 1031.96 1032.11 1032.22 1032.26
1019.24 1019.92 1020.67 1021.49 1022.38 1023.31 1024.20 1025.01 1025.71 1026.28 1026.77 1027.22 1027.68 1028.19 1028.75 1029.35 1029.94 1030.45 1030.82 1031.04 1031.09 1031.01 1030.87 1030.73 1030.67 1030.75 1030.96 1031.30 1031.70 1032.11 1032.45 1032.69 1032.81 1032.80 1032.73 1032.62 1032.53 1032.49 1032.52 1032.60 1032.71 1032.81 1032.85
1019.38 1020.04 1020.73 1021.51 1022.37 1023.29 1024.23 1025.12 1025.93 1026.63 1027.26 1027.83 1028.39 1028.98 1029.61 1030.27 1030.90 1031.45 1031.87 1032.13 1032.20 1032.13 1031.96 1031.78 1031.65 1031.64 1031.76 1032.02 1032.37 1032.75 1033.10 1033.37 1033.53 1033.57 1033.52 1033.42 1033.31 1033.23 1033.20 1033.23 1033.28 1033.34 1033.37
1019.51 1020.16 1020.81 1021.52 1022.33 1023.22 1024.16 1025.10 1025.98 1026.80 1027.54 1028.22 1028.89 1029.56 1030.26 1030.97 1031.67 1032.29 1032.78 1033.11 1033.25 1033.23 1033.08 1032.88 1032.70 1032.61 1032.63 1032.79 1033.05 1033.36 1033.69 1033.96 1034.14 1034.22 1034.21 1034.14 1034.03 1033.93 1033.86 1033.83 1033.83 1033.85 1033.86
1019.61 1020.27 1020.88 1021.54 1022.27 1023.11 1024.02 1024.96 1025.88 1026.77 1027.59 1028.36 1029.11 1029.86 1030.62 1031.40 1032.17 1032.87 1033.46 1033.90 1034.15 1034.22 1034.15 1033.97 1033.77 1033.61 1033.54 1033.58 1033.73 1033.96 1034.22 1034.47 1034.66 1034.77 1034.80 1034.77 1034.68 1034.59 1034.50 1034.43 1034.40 1034.38 1034.37
1019.67 1020.36 1020.95 1021.55 1022.21 1022.96 1023.81 1024.72 1025.65 1026.56 1027.44 1028.27 1029.08 1029.88 1030.70 1031.53 1032.37 1033.16 1033.87 1034.44 1034.84 1035.05 1035.08 1034.98 1034.80 1034.61 1034.46 1034.39 1034.42 1034.54 1034.72 1034.92 1035.10 1035.23 1035.30 1035.32 1035.28 1035.21 1035.13 1035.06 1035.01 1034.97 1034.94
1019.65 1020.39 1020.98 1021.54 1022.13 1022.81 1023.58 1024.43 1025.33 1026.25 1027.14 1028.00 1028.84 1029.67 1030.52 1031.40 1032.30 1033.18 1034.00 1034.71 1035.27 1035.65 1035.83 1035.84 1035.73 1035.54 1035.35 1035.20 1035.12 1035.13 1035.21 1035.35 1035.50 1035.65 1035.76 1035.82 1035.84 1035.82 1035.78 1035.73 1035.69 1035.65 1035.62
1019.54 1020.34 1020.97 1021.50 1022.04 1022.65 1023.35 1024.14 1025.00 1025.89 1026.78 1027.64 1028.49 1029.34 1030.20 1031.10 1032.03 1032.98 1033.90 1034.75 1035.46 1036.01 1036.36 1036.52 1036.51 1036.38 1036.18 1035.99 1035.83 1035.75 1035.74 1035.81 1035.93 1036.06 1036.20 1036.31 1036.39 1036.44 1036.45 1036.45 1036.44 1036.42 1036.39
1019.32 1020.21 1020.88 1021.42 1021.94 1022.50 1023.15 1023.89 1024.70 1025.57 1026.44 1027.30 1028.15 1028.99 1029.85 1030.74 1031.68 1032.66 1033.65 1034.60 1035.45 1036.16 1036.68 1036.99 1037.11 1037.07 1036.92 1036.73 1036.54 1036.39 1036.32 1036.33 1036.41 1036.53 1036.68 1036.83 1036.97 1037.07 1037.15 1037.20 1037.22 1037.23 1037.23
1018.99 1019.97 1020.72 1021.30 1021.83 1022.38 1022.99 1023.70 1024.49 1025.33 1026.19 1027.05 1027.88 1028.71 1029.54 1030.41 1031.33 1032.31 1033.32 1034.33 1035.28 1036.11 1036.78 1037.26 1037.53 1037.61 1037.55 1037.40 1037.22 1037.06 1036.96 1036.93 1036.97 1037.08 1037.23 1037.40 1037.57 1037.72 1037.84 1037.94 1038.01 1038.05 1038.07
1018.58 1019.66 1020.49 1021.15 1021.72 1022.28 1022.89 1023.59 1024.36 1025.20 1026.05 1026.90 1027.73 1028.53 1029.34 1030.16 1031.04 1031.98 1032.97 1034.00 1034.99 1035.91 1036.70 1037.32 1037.74 1037.97 1038.04 1037.99 1037.87 1037.74 1037.64 1037.60 1037.63 1037.72 1037.86 1038.02 1038.20 1038.37 1038.52 1038.64 1038.73 1038.80 1038.84
1018.12 1019.30 1020.23 1020.97 1021.60 1022.20 1022.83 1023.53 1024.31 1025.14 1026.01 1026.86 1027.68 1028.46 1029.23 1030.01 1030.82 1031.70 1032.64 1033.63 1034.63 1035.59 1036.46 1037.20 1037.76 1038.14 1038.36 1038.44 1038.44 1038.39 1038.34 1038.32 1038.34 1038.42 1038.54 1038.68 1038.84 1039.00 1039.14 1039.27 1039.38 1039.45 1039.51
1017.64 1018.91 1019.94 1020.77 1021.47 1022.12 1022.78 1023.50 1024.29 1025.13 1026.00 1026.86 1027.68 1028.45 1029.19 1029.92 1030.67 1031.46 1032.32 1033.25 1034.21 1035.17 1036.08 1036.90 1037.59 1038.12 1038.50 1038.74 1038.88 1038.95 1038.98 1039.02 1039.07 1039.14 1039.24 1039.35 1039.47 1039.60 1039.72 1039.82 1039.92 1039.99 1040.05
1017.18 1018.53 1019.64 1020.55 1021.32 1022.02 1022.72 1023.45 1024.25 1025.10 1025.97 1026.84 1027.66 1028.43 1029.15 1029.84 1030.52 1031.24 1032.02 1032.86 1033.76 1034.69 1035.61 1036.48 1037.26 1037.92 1038.45 1038.86 1039.16 1039.38 1039.53 1039.64 1039.74 1039.83 1039.91 1039.99 1040.07 1040.15 1040.23 1040.30 1040.37 1040.43 1040.48
1016.74 1018.14 1019.33 1020.31 1021.14 1021.88 1022.60 1023.34 1024.13 1024.98 1025.85 1026.72 1027.55 1028.32 1029.04 1029.70 1030.35 1031.01 1031.71 1032.47 1033.30 1034.17 1035.07 1035.96 1036.80 1037.56 1038.23 1038.79 1039.25 1039.62 1039.90 1040.12 1040.29 1040.41 1040.50 1040.56 1040.61 1040.65 1040.68 1040.71 1040.76 1040.80 1040.85
1016.31 1017.74 1018.98 1020.02 1020.89 1021.66 1022.39 1023.13 1023.90 1024.73 1025.59 1026.46 1027.30 1028.08 1028.81 1029.48 1030.11 1030.74 1031.39 1032.09 1032.85 1033.66 1034.52 1035.40 1036.27 1037.09 1037.86 1038.55 1039.15 1039.66 1040.08 1040.41 1040.66 1040.84 1040.95 1041.02 1041.05 1041.06 1041.07 1041.08 1041.11 1041.15 1041.20
1015.86 1017.30 1018.57 1019.64 1020.54 1021.33 1022.06 1022.79 1023.54 1024.34 1025.18 1026.04 1026.89 1027.70 1028.45 1029.14 1029.80 1030.42 1031.05 1031.71 1032.42 1033.17 1033.98 1034.83 1035.69 1036.55 1037.38 1038.16 1038.86 1039.49 1040.03 1040.47 1040.81 1041.06 1041.23 1041.32 1041.37 1041.39 1041.39 1041.40 1041.42 1041.47 1041.53
1015.36 1016.78 1018.06 1019.15 1020.08 1020.88 1021.61 1022.32 1023.05 1023.82 1024.64 1025.49 1026.34 1027.17 1027.96 1028.70 1029.39 1030.05 1030.69 1031.33 1032.01 1032.72 1033.48 1034.29 1035.12 1035.97 1036.81 1037.63 1038.41 1039.12 1039.75 1040.29 1040.72 1041.05 1041.29 1041.44 1041.53 1041.57 1041.60 1041.63 1041.68 1041.75 1041.84
1014.78 1016.17 1017.43 1018.54 1019.49 1020.30 1021.04 1021.73 1022.44 1023.19 1023.99 1024.82 1025.69 1026.54 1027.38 1028.17 1028.92 1029.62 1030.29 1030.95 1031.62 1032.30 1033.02 1033.77 1034.55 1035.37 1036.19 1037.02 1037.82 1038.57 1039.27 1039.88 1040.39 1040.81 1041.12 1041.35 1041.50 1041.60 1041.68 1041.75 1041.84 1041.94 1042.06
1014.11 1015.45 1016.69 1017.80 1018.77 1019.61 1020.36 1021.06 1021.77 1022.50 1023.28 1024.11 1024.97 1025.85 1026.72 1027.56 1028.37 1029.13 1029.85 1030.54 1031.21 1031.88 1032.56 1033.26 1033.99 1034.75 1035.53 1036.33 1037.12 1037.89 1038.61 1039.28 1039.86 1040.34 1040.74 1041.04 1041.27 1041.44 1041.58 1041.70 1041.84 1041.99 1042.15
1013.40 1014.66 1015.86 1016.97 1017.96 1018.83 1019.61 1020.34 1021.05 1021.78 1022.56 1023.37 1024.24 1025.12 1026.02 1026.91 1027.76 1028.58 1029.35 1030.07 1030.76 1031.43 1032.09 1032.75 1033.42 1034.12 1034.85 1035.59 1036.35 1037.11 1037.84 1038.53 1039.16 1039.70 1040.16 1040.54 1040.84 1041.08 1041.28 1041.47 1041.65 1041.84 1042.04
1012.67 1013.83 1014.98 1016.08 1017.09 1018.00 1018.82 1019.59 1020.33 1021.08 1021.85 1022.67 1023.52 1024.41 1025.31 1026.21 1027.10 1027.95 1028.76 1029.52 1030.23 1030.91 1031.55 1032.19 1032.82 1033.47 1034.14 1034.84 1035.56 1036.29 1037.01 1037.71 1038.35 1038.94 1039.45 1039.88 1040.24 1040.54 1040.80 1041.03 1041.25 1041.48 1041.71
1011.98 1013.03 1014.11 1015.18 1016.20 1017.15 1018.03 1018.85 1019.63 1020.41 1021.19 1022.00 1022.84 1023.71 1024.60 1025.50 1026.39 1027.26 1028.09 1028.87 1029.61 1030.30 1030.95 1031.57 1032.18 1032.80 1033.43 1034.09 1034.77 1035.47 1036.17 1036.86 1037.51 1038.11 1038.65 1039.12 1039.52 1039.86 1040.16 1040.42 1040.67 1040.92 1041.17
1011.39 1012.30 1013.29 1014.32 1015.34 1016.31 1017.24 1018.11 1018.95 1019.76 1020.57 1021.38 1022.20 1023.05 1023.91 1024.78 1025.66 1026.52 1027.35 1028.15 1028.90 1029.60 1030.27 1030.90 1031.51 1032.12 1032.73 1033.36 1034.02 1034.69 1035.36 1036.03 1036.68 1037.28 1037.83 1038.31 1038.73 1039.09 1039.40 1039.68 1039.94 1040.20 1040.46
Thickness
5614 5614 5615 5615 5615 5616 5617 5619 5620 5621 5622 5623 5624 5625 5627 5627 5627 5628 5627 5627 5628 5629 5630 5630 5630 5629 5629 5629 5628 5627 5627 5627 5626 5625 5625 5624 5624 5623 5623 5622 5622 5621 5621
5606 5606 5606 5606 5607 5608 5609 5610 5612 5612 5613 5614 5615 5616 5617 5618 5618 5619 5620 5620 5620 5621 5622 5622 5622 5622 5622 5621 5621 5621 5620 5620 5619 5619 5618 5617 5616 5616 5616 5615 5615 5614 5614
5597 5598 5598 5598 5598 5599 5600 5601 5603 5604 5604 5605 5606 5607 5608 5609 5610 5611 5612 5612 5612 5612 5613 5613 5614 5614 5614 5613 5613 5613 5613 5612 5612 5611 5611 5610 5609 5609 5608 5608 5608 5607 5607
5586 5588 5589 5589 5589 5589 5591 5593 5594 5595 5595 5596 5597 5598 5598 5599 5601 5602 5603 5603 5604 5604 5604 5604 5605 5605 5605 5605 5606 5605 5605 5604 5604 5603 5603 5603 5602 5601 5601 5600 5600 5600 5599
5576 5578 5579 5580 5581 5581 5582 5584 5585 5585 5586 5587 5587 5588 5589 5590 5591 5593 5594 5594 5595 5595 5596 5596 5596 5596 5596 5597 5598 5597 5597 5596 5596 5596 5595 5595 5595 5594 5594 5593 5593 5592 5592
5567 5568 5569 5570 5571 5572 5573 5574 5575 5575 5576 5576 5577 5578 5579 5580 5581 5583 5584 5585 5586 5586 5586 5587 5588 5588 5588 5588 5589 5589 5588 5588 5588 5588 5588 5587 5587 5587 5586 5586 5585 5585 5584
5558 5558 5559 5561 5562 5564 5564 5565 5565 5566 5566 5567 5568 5569 5569 5570 5572 5573 5574 5576 5577 5577 5577 5578 5579 5579 5580 5579 5580 5580 5580 5580 5580 5580 5580 5580 5580 5579 5579 5578 5577 5577 5576
5548 5549 5550 5551 5553 5554 5555 5555 5556 5556 5556 5558 5561 5563 5563 5563 5563 5563 5565 5566 5567 5568 5568 5568 5569 5570 5571 5571 5571 5571 5571 5571 5572 5572 5571 5572 5571 5571 5570 5569 5569 5569 5568
5539 5540 5541 5541 5542 5545 5546 5546 5547 5548 5549 5548 5551 5556 5559 5563 5558 5556 5556 5557 5558 5559 5560 5560 5561 5561 5562 5562 5562 5562 5562 5562 5563 5563 5563 5562 5562 5562 5561 5561 5561 5560 5559
5529 5530 5531 5532 5533 5534 5536 5537 5538 5539 5540 5541 5541 5543 5548 5552 5552 5550 5548 5548 5549 5550 5551 5551 5552 5552 5553 5553 5553 5553 5553 5553 5553 5553 5553 5553 5553 5552 5552 5552 5552 5551 5550
5520 5520 5521 5522 5522 5524 5525 5526 5527 5529 5531 5532 5533 5533 5535 5537 5541 5544 5544 5541 5540 5541 5542 5542 5543 5544 5543 5543 5544 5544 5543 5543 5543 5543 5543 5543 5543 5543 5542 5542 5541 5541 5540
5510 5511 5512 5512 5513 5514 5515 5516 5517 5518 5520 5522 5523 5523 5524 5526 5530 5534 5536 5534 5533 5534 5533 5533 5534 5535 5534 5534 5534 5534 5534 5533 5533 5533 5533 5533 5533 5533 5532 5532 5532 5531 5531
5503 5503 5502 5502 5503 5504 5504 5505 5506 5508 5510 5511 5513 5514 5515 5516 5518 5521 5524 5524 5524 5524 5524 5525 5525 5525 5525 5525 5525 5524 5524 5523 5523 5523 5523 5523 5522 5522 5522 5522 5522 5521 5521
5494 5493 5493 5493 5493 5494 5494 5495 5496 5497 5499 5500 5501 5502 5503 5505 5506 5508 5511 5512 5513 5514 5516 5518 5517 5516 5516 5516 5516 5515 5515 5514 5513 5513 5513 5512 5512 5512 5512 5511 5511 5511 5511
5483 5483 5483 5483 5483 5483 5484 5484 5485 5486 5488 5489 5491 5491 5492 5494 5495 5497 5498 5501 5504 5507 5510 5511 5509 5508 5507 5506 5506 5505 5506 5505 5504 5504 5503 5502 5502 5502 5502 5501 5501 5501 5500
5473 5473 5472 5473 5473 5473 5473 5474 5475 5475 5476 5478 5479 5480 5481 5483 5484 5485 5486 5489 5492 5495 5499 5502 5501 5499 5497 5497 5496 5496 5496 5495 5494 5494 5493 5493 5492 5492 5491 5491 5491 5491 5490
5463 5463 5463 5462 5463 5463 5463 5463 5465 5466 5466 5467 5468 5469 5470 5471 5473 5474 5475 5477 5479 5482 5485 5488 5487 5487 5487 5487 5486 5486 5485 5485 5485 5484 5483 5483 5482 5482 5481 5481 5481 5480 5480
5453 5452 5452 5452 5452 5452 5453 5454 5455 5455 5456 5456 5457 5457 5458 5459 5461 5463 5464 5466 5468 5470 5472 5474 5474 5474 5474 5476 5475 5475 5474 5474 5475 5474 5473 5473 5472 5471 5471 5471 5471 5470 5470
5442 5442 5442 5441 5441 5441 5442 5443 5444 5444 5445 5445 5446 5446 5447 5448 5450 5451 5452 5454 5456 5457 5459 5461 5463 5462 5462 5463 5463 5463 5463 5463 5464 5463 5462 5462 5461 5460 5460 5460 5460 5459 5459
5431 5431 5431 5431 5431 5430 5431 5432 5432 5433 5433 5434 5434 5435 5436 5437 5439 5439 5440 5443 5443 5444 5445 5448 5450 5450 5450 5450 5450 5450 5451 5451 5452 5451 5450 5450 5450 5449 5449 5449 5449 5448 5448
5418 5418 5418 5418 5419 5419 5420 5421 5421 5422 5422 5423 5423 5424 5425 5426 5426 5427 5429 5430 5430 5432 5433 5435 5437 5438 5438 5437 5439 5440 5439 5439 5440 5439 5438 5439 5438 5439 5438 5438 5437 5437 5436
5405 5405 5406 5407 5407 5408 5409 5409 5410 5410 5411 5411 5412 5413 5413 5414 5414 5415 5416 5417 5417 5419 5422 5423 5425 5427 5428 5427 5427 5427 5427 5426 5428 5428 5426 5427 5426 5427 5427 5427 5427 5426 5425
5392 5393 5394 5395 5396 5397 5397 5397 5398 5399 5399 5400 5400 5401 5402 5403 5402 5403 5403 5403 5404 5405 5408 5411 5413 5416 5417 5417 5415 5415 5415 5415 5417 5416 5412 5416 5415 5416 5416 5416 5415 5414 5413
5379 5380 5381 5382 5383 5384 5384 5385 5385 5386 5387 5387 5387 5388 5389 5390 5390 5390 5391 5392 5393 5395 5396 5397 5400 5403 5403 5403 5403 5404 5403 5402 5402 5401 5399 5402 5404 5404 5404 5403 5402 5402 5401
5366 5367 5368 5369 5370 5371 5371 5372 5371 5372 5373 5374 5374 5374 5375 5376 5377 5376 5377 5380 5382 5384 5384 5385 5387 5389 5389 5389 5389 5388 5389 5388 5390 5390 5387 5388 5391 5389 5390 5390 5390 5389 5388
5352 5353 5353 5355 5356 5357 5358 5358 5358 5359 5360 5361 5361 5361 5362 5363 5363 5363 5364 5367 5370 5373 5373 5374 5374 5376 5376 5376 5376 5376 5377 5377 5379 5378 5376 5374 5375 5373 5375 5377 5375 5374 5374